Location: Seale
(32.2974°N, 85.1688°W)
Time: 05:58:06
(UTC+00:00)

Hubble Space Telescope - Pass Details

Date: 26 January 2021
Orbit: 536 x 539 km, 28.5° (Epoch: 02 March)

Event Time Altitude Azimuth Distance (km) Brightness Sun altitude
Rises 01:09:17 0° 265° (W) 2,674 5.7 -25.6°
Reaches altitude 10° 01:11:58 10° 249° (WSW) 1,783 4.4 -26.2°
Maximum altitude 01:15:05 21° 200° (SSW) 1,241 2.8 -26.8°
Enters shadow 01:15:12 21° 197° (SSW) 1,242 2.8 -26.9°
